This is the latest recevied weather packets stored in our database for station/object KI4NG. If no packets are shown the sender has not sent any weather packets the latest 1 day(s).
| Time | Temp. | Humidity | Pressure | Rain* | Wind** | Luminosity | Snow |
|---|---|---|---|---|---|---|---|
| 1778100052 | 13.89° C | 99% | 1012.7 hPa | 0 mm | - | 110 W/m² | - |
| 1778096112 | 15° C | 99% | 1013.7 hPa | 0 mm | - | 61 W/m² | - |
| 1778095506 | 15.56° C | 99% | 1013.3 hPa | 0 mm | - | 46 W/m² | - |
| 1778094899 | 15.56° C | 99% | 1013.3 hPa | 0 mm | - | 113 W/m² | - |
| 1778094292 | 16.11° C | 99% | 1012.9 hPa | 0 mm | - | 184 W/m² | - |
| 1778093686 | 16.67° C | 98% | 1012.8 hPa | 0 mm | - | 215 W/m² | - |
| 1778092777 | 18.33° C | 97% | 1013 hPa | 0 mm | - | 111 W/m² | - |
| 1778092472 | 18.33° C | 96% | 1012.8 hPa | 0 mm | - | 118 W/m² | - |
| 1778091564 | 19.44° C | 94% | 1012.8 hPa | 0 mm | - | 141 W/m² | - |
| 1778091262 | 19.44° C | 92% | 1013 hPa | 0 mm | - | 150 W/m² | - |
| 1778090654 | 20° C | 91% | 1012.9 hPa | 0 mm | - | 229 W/m² | - |
| 1778090043 | 20.56° C | 92% | 1012.7 hPa | 0 mm | - | 436 W/m² | - |
| 1778088831 | 20° C | 94% | 1013 hPa | 0 mm | - | 196 W/m² | - |
| 1778088528 | 19.44° C | 95% | 1013 hPa | 0 mm | - | 304 W/m² | - |
| 1778086712 | 19.44° C | 94% | 1012.8 hPa | 0 mm | - | 268 W/m² | - |
| 1778085500 | 18.89° C | 97% | 1012.9 hPa | 0 mm | - | 609 W/m² | - |
| 1778084890 | 18.89° C | 99% | 1012.8 hPa | 0 mm | - | 343 W/m² | - |
| 1778083983 | 17.78° C | 99% | 1013 hPa | 0 mm | - | 349 W/m² | - |
| 1778082772 | 17.22° C | 99% | 1012.9 hPa | 0 mm | - | 108 W/m² | - |
| 1778081038 | 17.22° C | 99% | 1012.5 hPa | 0 mm | - | 121 W/m² | - |
| 1778080737 | 17.22° C | 99% | 1012.4 hPa | 0 mm | - | 156 W/m² | - |
| 1778079220 | 16.67° C | 99% | 1011.5 hPa | 1.78 mm | - | 169 W/m² | - |
| 1778078614 | 16.67° C | 99% | 1011.8 hPa | 1.78 mm | - | 81 W/m² | - |
| 1778078313 | 16.67° C | 99% | 1012.3 hPa | 0 mm | - | 72 W/m² | - |
| 1778077708 | 16.67° C | 99% | 1012.6 hPa | 0 mm | - | 61 W/m² | - |
* Rain latest hour (hover to see other rain measurements)
** Current wind speed in m/s (hover to see current wind gust speed)